Dewpoint
57 58 58 58 58 58 58 58 58 58 58 59 59 59 59 60 59 56 36 33 42 66 61 43 45 40 35 34 33 31 33 41 40 44 47 49 54 55 54 54 54 55 55 57 55
57 58 58 58 58 57 58 58 58 58 58 58 59 59 59 60 55 48 53 62 63 67 43 38 35 36 32 27 28 31 30 34 39 47 50 54 53 54 54 54 54 55 56 57 54
58 58 58 58 58 57 58 58 58 58 58 58 58 58 59 59 50 44 64 64 67 61 34 35 31 32 30 27 30 40 40 41 43 48 53 52 50 52 55 54 54 54 55 56 53
57 58 58 58 58 58 58 58 58 59 58 58 58 58 60 55 29 34 68 65 68 48 38 33 31 26 25 27 34 39 41 41 40 50 51 50 49 52 54 55 57 56 56 56 54
57 57 57 57 57 57 57 58 58 58 58 58 58 59 55 43 44 55 67 66 52 43 36 32 29 23 21 27 38 38 40 41 45 49 50 50 48 50 52 56 57 57 56 56 55
57 57 57 57 57 57 57 57 57 57 57 58 58 60 51 39 37 57 49 48 38 35 33 34 31 24 23 22 21 34 41 43 46 48 50 50 50 50 53 56 56 57 56 54 51
57 57 57 57 57 57 57 57 56 56 57 58 58 56 48 38 37 48 41 38 34 32 32 34 30 27 25 20 25 33 43 44 47 45 48 49 49 50 52 53 53 49 48 50 53
57 57 57 57 57 57 57 57 56 56 57 59 58 53 39 44 39 39 38 31 30 30 30 29 24 22 21 23 34 43 45 41 45 45 45 45 46 50 51 50 50 44 48 50 54
57 57 57 57 57 56 56 56 56 57 59 59 54 48 40 48 32 33 32 25 25 24 26 23 23 19 22 27 34 44 41 43 46 46 45 43 48 50 52 51 50 43 46 52 53
57 57 57 56 55 55 54 55 54 56 55 53 47 42 40 37 31 32 31 26 22 24 23 19 20 20 21 29 29 39 42 43 38 42 45 45 44 48 51 50 51 45 45 52 53
57 57 56 55 55 54 53 49 28 32 42 38 35 40 36 37 35 30 30 29 28 26 16 22 16 17 18 27 34 39 37 35 36 44 43 41 42 45 50 51 52 44 45 52 53
56 55 55 54 54 54 52 43 38 27 24 27 27 29 31 31 30 30 29 26 21 17 21 18 16 18 21 23 31 35 35 34 43 42 43 42 41 44 47 50 52 50 47 51 55
54 54 54 54 54 51 46 42 42 35 31 33 28 27 26 28 28 26 26 24 19 18 18 16 18 21 21 21 25 27 30 36 36 42 46 46 42 45 48 54 51 50 48 53 55
53 53 54 54 47 49 46 45 45 41 35 34 30 25 24 25 27 29 24 21 20 16 18 16 16 19 20 22 23 20 23 27 31 42 38 43 39 35 44 50 50 50 51 54 55
53 54 54 54 48 48 45 47 45 39 18 32 27 23 23 23 25 24 21 20 17 17 16 14 14 16 18 20 22 21 24 21 24 39 30 43 34 38 49 49 50 55 52 54 57
53 53 53 49 49 50 50 47 35 32 21 34 20 20 22 24 23 23 20 20 18 17 17 14 14 16 14 15 20 22 21 18 22 20 15 28 31 42 49 52 53 56 56 57 57
52 52 50 50 46 47 48 41 26 27 29 25 18 18 21 23 23 23 17 14 12 10 14 14 15 15 18 15 17 16 14 13 13 14 15 28 37 41 52 54 55 55 57 57 58
51 50 50 50 50 49 46 33 25 25 23 21 21 17 19 22 22 22 15 12 12 14 14 12 12 14 14 13 12 12 13 16 11 24 21 39 35 41 52 54 55 57 59 58 58
50 49 50 50 50 48 40 29 27 29 27 25 25 17 16 19 20 21 17 12 11 12 11 16 16 17 14 13 13 13 14 17 17 25 24 36 48 51 53 52 53 57 58 58 57
47 47 48 48 49 47 38 32 29 30 25 24 26 22 17 17 18 19 20 17 16 14 14 16 17 21 22 17 15 12 19 18 24 16 19 31 45 42 50 49 53 55 58 57 55
47 46 49 47 47 41 32 29 27 24 24 27 23 27 29 28 18 18 21 22 18 14 14 12 20 15 20 17 14 12 13 25 26 31 27 29 38 47 49 52 55 56 56 56 55
48 44 47 44 36 35 30 29 32 23 25 24 26 25 32 32 31 19 23 21 24 20 11 16 21 16 14 17 18 13 12 18 21 20 36 34 32 47 48 52 55 55 56 55 55
45 46 48 43 31 32 32 31 29 27 26 25 25 25 27 28 33 34 22 26 28 23 19 19 20 16 14 17 27 16 21 29 35 35 37 32 30 43 49 51 55 55 55 54 52
47 44 47 46 41 36 35 33 30 33 33 27 23 25 27 30 35 33 29 31 25 25 45 31 24 17 17 21 27 30 24 27 30 31 30 33 38 45 50 49 54 56 55 52 46
45 44 48 42 41 43 42 36 33 29 35 35 24 24 26 29 30 39 43 42 38 45 36 24 21 25 21 25 22 21 25 28 31 29 29 27 39 40 51 52 54 54 53 47 46
44 48 48 45 45 42 41 37 33 30 31 34 28 23 26 32 33 42 43 42 44 42 26 34 21 29 24 29 31 31 35 35 31 30 40 39 40 42 49 53 50 50 48 47 46
47 48 47 44 44 41 40 41 39 37 34 31 34 27 23 41 43 43 44 44 43 42 41 34 31 27 20 31 35 30 36 37 34 35 39 37 40 47 48 48 48 48 47 47 46
Lifted_Index
11 11 11 10 10 10 11 11 11 11 10 10 11 11 11 11 11 11 10 11 10 8 7 7 6 5 3 2 2 2 2 1 1 -1 -1 -2 -2 -2 -2 -1 -1 -1 -0 -0 0
11 11 11 11 10 10 11 11 11 11 11 11 11 11 11 11 10 10 10 10 9 8 7 6 5 4 3 2 1 1 1 1 0 -1 -2 -2 -2 -2 -2 -1 -1 -0 -0 -0 0
11 11 11 11 11 11 11 11 11 11 11 11 12 11 11 10 9 8 8 9 8 8 8 6 5 4 2 1 0 0 0 0 -0 -2 -3 -3 -3 -2 -2 -1 -1 -0 -0 -0 -0
11 11 11 11 11 11 11 11 11 11 12 12 12 11 10 9 7 7 7 7 7 8 7 6 4 3 2 1 1 0 -0 -0 -1 -2 -2 -2 -2 -2 -2 -2 -1 -0 -0 -0 -0
12 12 12 12 11 11 11 11 11 12 12 12 12 11 10 8 7 7 7 7 8 8 7 5 3 2 2 1 0 -0 -1 -1 -1 -2 -2 -2 -1 -2 -2 -2 -1 -1 -0 -0 -0
12 12 12 12 12 11 11 11 12 12 12 12 11 10 9 8 7 7 8 9 9 8 6 5 4 3 2 1 1 -0 -1 -1 -1 -2 -2 -1 -1 -1 -2 -2 -1 -1 -1 -1 -1
12 12 12 12 12 12 11 12 12 12 12 12 11 10 9 8 7 7 8 9 9 8 6 5 4 4 3 2 1 1 -0 -1 -1 -2 -1 -1 -1 -1 -1 -1 -1 -1 -1 -1 -1
11 12 12 12 12 12 12 12 12 12 12 11 10 9 8 8 7 7 8 9 9 8 6 6 6 4 3 2 1 0 -0 -1 -1 -1 -1 -1 -1 -1 -1 -1 -1 -1 -1 -1 -1
11 11 11 11 12 12 12 12 12 11 10 10 10 9 8 7 7 7 7 8 8 7 7 7 6 4 2 2 1 -0 -0 -1 -1 -1 -1 -1 -1 -1 -2 -1 -1 -1 -1 -1 -1
11 11 11 11 12 12 12 11 10 10 9 9 9 9 8 7 7 7 7 8 8 7 7 7 5 3 2 1 0 -0 -0 -0 -1 -1 -1 -0 -0 -1 -1 -1 -1 -1 -1 -1 -1
11 11 11 11 12 12 12 10 10 9 9 9 9 8 8 7 7 7 7 8 8 7 7 6 4 2 1 1 0 -0 -0 -0 -0 -1 -0 -0 -0 -0 -1 -1 -1 -1 -1 -1 -1
11 11 11 11 11 11 11 10 10 10 9 9 9 9 8 8 7 7 7 8 7 7 6 5 3 2 1 1 -0 -0 0 0 0 -0 -0 -0 -0 -1 -1 -2 -2 -1 -1 -0 -0
11 11 11 11 11 11 10 10 10 10 9 8 8 8 8 7 7 7 7 8 7 7 6 5 3 3 2 1 0 0 1 1 0 -0 -1 -1 -1 -1 -2 -2 -2 -2 -1 0 0
11 11 11 11 11 10 9 9 10 9 7 6 7 7 7 7 7 7 7 8 7 6 6 5 4 3 2 2 1 1 1 1 0 -0 -1 -1 -1 -1 -2 -2 -3 -2 -1 0 -0
11 11 10 10 10 10 9 9 9 7 5 4 6 7 7 7 6 6 7 7 7 6 6 5 4 3 3 2 2 1 1 1 0 -0 -0 -1 -1 -1 -2 -2 -3 -2 -1 -1 -1
11 11 10 10 10 10 9 8 8 6 4 4 5 6 6 6 6 6 7 7 7 6 6 5 5 4 3 2 2 2 2 1 1 0 0 0 -0 -1 -2 -2 -2 -2 -2 -1 -1
11 11 10 10 10 9 8 7 6 4 3 4 4 4 5 5 6 6 6 6 6 6 5 5 5 5 4 3 2 2 2 1 1 0 1 0 0 -1 -1 -2 -2 -1 -1 -1 -1
11 10 9 9 9 8 7 6 4 3 3 3 4 4 4 4 5 6 6 6 6 5 5 4 4 4 4 3 3 2 2 1 1 1 1 0 -0 -0 -1 -1 -1 -1 -1 -1 -1
10 9 8 8 8 7 6 5 4 3 2 3 3 4 4 4 5 5 5 5 5 5 4 4 3 4 4 3 3 2 2 2 1 1 1 0 -1 -1 -0 -0 -1 -1 -1 -1 -1
8 7 7 7 7 6 5 5 4 3 3 2 2 3 3 3 4 5 5 5 4 4 4 4 3 3 3 3 3 2 2 2 2 1 1 0 -1 -1 -0 -0 -1 -1 -1 -1 -1
6 6 5 5 5 4 5 5 4 4 3 3 2 2 1 2 2 3 4 4 4 4 4 4 3 2 2 3 3 2 2 2 2 1 1 1 -0 -1 -1 -0 -1 -1 -1 -1 -1
5 4 3 4 4 4 4 5 5 4 4 3 3 2 1 1 1 2 2 2 2 2 3 3 3 2 2 2 2 2 2 2 1 1 1 1 0 -1 -1 -1 -1 -1 -1 -1 -1
4 3 2 2 3 3 4 5 5 4 4 3 3 3 2 1 0 1 1 1 1 1 2 2 3 2 1 2 2 2 2 1 1 1 1 1 0 -1 -2 -2 -1 -1 -1 -1 -1
4 3 2 1 2 3 4 4 4 3 3 3 3 3 2 1 -0 -0 -0 -0 0 0 1 1 2 2 1 1 1 2 2 1 0 1 1 1 0 -1 -2 -3 -2 -2 -2 -1 -1
4 3 2 1 1 2 3 3 3 3 3 3 3 3 2 0 -1 -1 -2 -2 -1 -1 -0 0 1 1 1 1 1 1 1 1 0 0 1 1 -0 -2 -3 -3 -3 -2 -2 -1 -1
4 3 2 1 1 1 2 2 2 2 2 2 3 3 2 1 -1 -2 -2 -2 -2 -1 -1 0 1 1 1 1 1 1 1 0 0 1 1 0 -0 -1 -3 -3 -3 -3 -2 -2 -1
5 4 2 1 1 1 1 1 1 1 1 2 2 3 2 1 -1 -1 -2 -2 -2 -2 -1 -0 0 1 1 1 1 1 0 0 1 1 0 -0 -1 -1 -2 -3 -3 -3 -2 -1 -1